Regional Weather Roundup
Issued by NWS Charleston, SC

Current Version | Previous Version | Text Only | Print | Product List | Glossary Off
Versions: 1 2 3 4 5 6 7 8 9 10 11 12 13 14 15 16 17 18 19 20 21 22 23 24 25 26 27 28 29 30 31 32 33 34 35 36 37 38 39 40 41 42 43 44 45 46 47 48 49 50

000
ASUS42 KCHS 221312
RWRCHS

REGIONAL WEATHER ROUNDUP
NATIONAL WEATHER SERVICE CHARLESTON SC
900 AM EDT SAT JUL 22 2017

NOTE: "FAIR" INDICATES FEW OR NO CLOUDS BELOW 12,000 FEET WITH NO
SIGNIFICANT WEATHER AND/OR OBSTRUCTIONS TO VISIBILITY.

NOT ALL STATIONS ARE QUALITY CONTROLLED. USE DATA WITH CAUTION...
ESPECIALLY DEWPOINT OBSERVATIONS.

SCZ027-030-031-034>040-042>050-221400-
...SOUTHEAST SOUTH CAROLINA...

CITY           SKY/WX    TMP DP  RH WIND       PRES   REMARKS
N CHARLESTON   SUNNY     82  74  76 W7        30.04R
WATERFRONT PRK   N/A     82  78  88 VRB2      30.03R HX  91
JOHNS ISLAND   FAIR      84  79  84 SW7       30.05R HX  96
PINOPOLIS        N/A     81  77  89 VRB2      29.97R
MONCKS CORNER  FAIR      81  75  83 SW6       30.05R
SUMMERVILLE    FAIR      79  73  83 SW5       30.05S
BEAUFORT MCAS  SUNNY     82  75  79 SW5       30.06R
BEAUFORT ARPT  FAIR      81  72  74 W3        30.05R
HILTON HEAD IS SUNNY     81  75  83 CALM      30.06R
WALTERBORO     SUNNY     79  72  78 W6        30.06R
ALLENDALE      NOT AVBL

...SOUTHERN MIDLANDS AND PEE DEE...

CITY           SKY/WX    TMP DP  RH WIND       PRES   REMARKS
GEORGETOWN     FAIR      81  79  94 SW9       30.06R
KINGSTREE      FAIR      81  73  78 S3        30.04S
ORANGEBURG     SUNNY     78  72  81 SW7       30.05R
BARNWELL       FAIR      81  75  83 W5        30.05S
AIKEN          FAIR      77  72  83 SW5       30.08S
MANNING        FAIR      81  75  83 W7        30.05R
COLUMBIA       MOSUNNY   80  72  76 SW7       30.03R
SUMTER         SUNNY     79  73  79 SW10      30.02R
FLORENCE       MOSUNNY   80  75  84 SW9       30.03R
MYRTLE BEACH   SUNNY     82  75  78 SW9       30.05R
N MYRTLE BEACH SUNNY     83  75  77 SW12      30.04R HX  90

$$

GAZ063-065-086>088-099>101-113>116-118-119-134>141-150-221400-
...SOUTHEAST GEORGIA...

CITY           SKY/WX    TMP DP  RH WIND       PRES   REMARKS
SAVANNAH ARPT  MOSUNNY   80  73  79 W6        30.07R
HUNTER AAF     SUNNY     81  73  76 W5        30.04R
FORT STEWART   SUNNY     79  72  79 SW5       30.05R
STATESBORO     SUNNY     79  75  87 SW3       30.07R
SYLVANIA       SUNNY     78  75  90 W3        30.07R
CLAXTON        FAIR      79  74  86 W3        30.07R

...CSRA...CENTRAL AND FAR SOUTHEAST GEORGIA...

CITY           SKY/WX    TMP DP  RH WIND       PRES   REMARKS
THOMSON        SUNNY     77  72  83 W3        30.10R
AUGUSTA-BUSH   SUNNY     80  73  79 W5        30.04R
AUGUSTA-DANIEL SUNNY     79  70  74 SW3       30.05R
SWAINSBORO     FAIR      77  73  88 W5        30.07R
VIDALIA        SUNNY     79  73  83 SW7       30.07S
EASTMAN        FAIR      78  72  81 SW7       30.09S
HAZLEHURST     FAIR      79  76  92 SW3       30.07R
ALMA           SUNNY     78  73  84 SW7       30.07R
WAYCROSS       SUNNY     80  79  96 SW5       30.07S
JESUP          NOT AVBL
BAXLEY         FAIR      77  77 100 SW6       30.07R
BRUNSWICK      SUNNY     81  73  78 SW7       30.07R
SAINT SIMONS   SUNNY     82  73  74 W6        30.06R

$$

SCZ027-028-034-036>038-045-046-048>050-GAZ119-141-221400-
...LAKE AND SUPPLEMENTAL COASTAL OBSERVATIONS...

STATION/POSITION TIME  TEMP    WIND        PRES    WAVE   SWELL
                       AIR SEA DIR/SP/G            HT/PER HT/PER/DIR
                 (UTC) (F)     (DEG/KT/KT) (MB)    (FT/S) (FT/S/D)
WINYAH BAY       1145   80     250/  2     1017.0
LAKE MURRAY      NOT AVBL
ACE BASIN NERRS  NOT AVBL
FORT PULASKI     1248   80 86  320/  5/  6 1018.1R
SAPELO ISLAND    1200   78        CALM     1017.0

$$

ANZ835-935-AMZ111-154-330-350-352-354-370-450-454-472-221400-
...C-MAN AND BUOY OBSERVATIONS...

STATION/POSITION TIME  TEMP    WIND        PRES    WAVE   SWELL
                       AIR SEA DIR/SP/G            HT/PER HT/PER/DIR
                 (UTC) (F)     (DEG/KT/KT) (MB)    (FT/S) (FT/S/D)
BUOY 41004       1250   82 83  210/  8/ 10 1017.4R   3/10   3/130/10
BUOY 41008       1250   80 82  260/  8/  8 1017.5R   2/10   2/ 80/10
FOLLY BEACH CMAN 1200   83     230/  6/  8 1017.6R
CAPERS NEARSHORE 1208   82 83  240/ 10/ 14 1016.9R
FRIPP NEARSHORE  1208   83 84  260/  6/  8 1016.6R


STATION/POSITION TIME  TEMP    WIND        PRES    WAVE   SWELL
                       AIR SEA DIR/SP/G            HT/PER HT/PER/DIR
                 (UTC) (F)     (DEG/KT/KT) (MB)    (FT/S) (FT/S/D)
5E ST. MARYS GA  1230      82                N/A     2/ 8
FRYING PAN BUOY  1250   83 83  230/ 12/ 14 1017.3R   3/ 9   2/170/ 9
BUOY 41025       1250   82 84  240/ 19/ 21 1015.7R   4/ 9   2/170/ 9
CAPE LOOKOUT NC  1200   82     240/  9/ 13 1016.1R
BUOY 41002       1150   83 83  210/ 14/ 16 1018.6    4/10   3/130/10
BUOY 41010       1250   83 85  210/ 10/ 12 1019.0R   3/ 8   2/100/ 8
ST AUGUSTINE FL  1300   82 80  250/  7/  9 1019.0R


$$




USA.gov is the U.S. government's official web portal to all federal, state and local government web resources and services.